Marion, IN

6:39 AM EDT on October 01, 2016 (GMT -0400)
Marion Municipal

Weather History for KMZZ - September, 2013

Change the Weather History Date:

Saturday, September 7, 2013

  Actual Average (KMIE) Record (KMIE)
Temperature  
Mean Temperature 71 °F 69 °F  
Max Temperature 86 °F 80 °F 93 °F (1990)
Min Temperature 56 °F 58 °F 39 °F (1988)
Degree Days  
Heating Degree Days 0 1  
Month to date heating degree days 7  
Since 1 July heating degree days 17  
Cooling Degree Days 6 5  
Month to date cooling degree days 39  
Year to date cooling degree days 873  
Growing Degree Days 21 (Base 50)    
Moisture  
Dew Point 58 °F    
Average Humidity 67    
Maximum Humidity 84    
Minimum Humidity 37    
Precipitation  
Precipitation 0.00 in 0.10 in 2.20 in (2012)
Month to date precipitation 0.72  
Year to date precipitation 28.63  
Sea Level Pressure  
Sea Level Pressure 30.04 in    
Wind  
Wind Speed 5 mph (SW)    
Max Wind Speed 14 mph    
Max Gust Speed 20 mph    
Visibility 9 miles    
Events Rain    
T = Trace of Precipitation, MM = Missing Value Source: NWS Daily Summary

Daily Weather History Graph

Daily Weather History Graph

Search for Another Location

Airport or City:

Trip Planner

Search our weather history database for the weather conditions in past years. The results will help you decide how hot, cold, wet, or windy it might be!

Date:

Astronomy

Sep. 07, 2013 Rise Set
Actual Time 7:16 AM EDT 8:04 PM EDT
Civil Twilight 6:48 AM EDT 8:32 PM EDT
Nautical Twilight 6:15 AM EDT 9:04 PM EDT
Astronomical Twilight 5:41 AM EDT 9:38 PM EDT
Moon 9:30 AM EDT (9/7) 9:01 PM EDT (9/7)
Length of Visible Light 13h 43m
Length of Day
12h 48m
Waxing Crescent, 5% of the Moon is Illuminated
Sep 7
Waxing Crescent
Sep 12
First Quarter
Sep 19
Full
Sep 26
Last Quarter
Oct 4
New

Hourly Weather History & Observations

Time (EDT) Temp. Heat Index Dew Point Humidity Pressure Visibility Wind Dir Wind Speed Gust Speed Precip Events Conditions
12:15 AM 61.9 °F - 53.4 °F 74% 30.10 in 10.0 mi SSE 3.5 mph - N/A   Clear
12:35 AM 61.2 °F - 53.1 °F 75% 30.10 in 10.0 mi South 3.5 mph - N/A   Clear
12:55 AM 60.6 °F - 52.9 °F 76% 30.10 in 10.0 mi South 4.6 mph - N/A   Clear
1:15 AM 60.4 °F - 52.7 °F 76% 30.10 in 10.0 mi South 5.8 mph - N/A   Clear
1:35 AM 60.3 °F - 52.7 °F 76% 30.10 in 10.0 mi Calm Calm - N/A   Clear
1:55 AM 60.1 °F - 52.2 °F 75% 30.10 in 10.0 mi South 4.6 mph - N/A   Clear
2:15 AM 59.7 °F - 51.8 °F 75% 30.10 in 10.0 mi Calm Calm - N/A   Clear
2:35 AM 59.5 °F - 51.8 °F 76% 30.09 in 10.0 mi South 4.6 mph - N/A   Clear
2:55 AM 58.5 °F - 51.8 °F 79% 30.09 in 10.0 mi SSE 3.5 mph - N/A   Clear
3:15 AM 57.4 °F - 52.0 °F 82% 30.09 in 10.0 mi South 4.6 mph - N/A   Clear
3:35 AM 58.1 °F - 51.8 °F 80% 30.09 in 10.0 mi South 5.8 mph - N/A   Clear
3:55 AM 58.1 °F - 51.8 °F 80% 30.09 in 10.0 mi Calm Calm - N/A   Clear
4:15 AM 57.6 °F - 51.8 °F 81% 30.09 in 10.0 mi Calm Calm - N/A   Clear
4:35 AM 57.6 °F - 51.8 °F 81% 30.09 in 10.0 mi South 3.5 mph - N/A   Clear
4:55 AM 57.4 °F - 51.6 °F 81% 30.09 in 10.0 mi SSE 3.5 mph - N/A   Clear
5:15 AM 56.8 °F - 51.6 °F 83% 30.09 in 10.0 mi South 3.5 mph - N/A   Clear
5:35 AM 56.7 °F - 51.4 °F 83% 30.09 in 10.0 mi SSE 3.5 mph - N/A   Clear
5:55 AM 56.3 °F - 51.4 °F 84% 30.08 in 10.0 mi South 4.6 mph - N/A   Clear
6:15 AM 56.5 °F - 51.4 °F 83% 30.08 in 10.0 mi South 4.6 mph - N/A   Clear
6:35 AM 56.8 °F - 51.4 °F 82% 30.09 in 10.0 mi South 3.5 mph - N/A   Clear
6:55 AM 56.7 °F - 51.4 °F 83% 30.09 in 10.0 mi South 3.5 mph - N/A   Clear
7:15 AM 56.7 °F - 51.4 °F 83% 30.09 in 10.0 mi South 3.5 mph - N/A   Clear
7:35 AM 57.2 °F - 51.8 °F 82% 30.09 in 10.0 mi South 4.6 mph - N/A   Clear
7:55 AM 58.3 °F - 52.5 °F 81% 30.09 in 10.0 mi South 4.6 mph - N/A   Scattered Clouds
8:15 AM 60.3 °F - 53.8 °F 79% 30.09 in 10.0 mi SSW 5.8 mph - N/A   Overcast
8:35 AM 61.0 °F - 54.7 °F 80% 30.08 in 10.0 mi SSW 5.8 mph - N/A   Scattered Clouds
8:55 AM 62.6 °F - 55.8 °F 78% 30.08 in 10.0 mi SSW 5.8 mph - N/A   Clear
9:15 AM 64.0 °F - 56.1 °F 75% 30.08 in 10.0 mi SSW 5.8 mph - N/A   Clear
9:35 AM 65.8 °F - 57.0 °F 73% 30.08 in 10.0 mi SSW 4.6 mph - N/A   Clear
9:55 AM 68.5 °F - 58.5 °F 70% 30.07 in 7.0 mi SSW 5.8 mph - N/A   Clear
10:15 AM 71.6 °F - 59.7 °F 66% 30.07 in 10.0 mi SW 9.2 mph - N/A   Clear
10:35 AM 73.8 °F - 60.8 °F 64% 30.07 in 10.0 mi SW 8.1 mph - N/A   Clear
10:55 AM 75.6 °F - 61.7 °F 62% 30.07 in 7.0 mi WSW 6.9 mph - N/A   Clear
11:15 AM 76.1 °F - 61.7 °F 61% 30.07 in 10.0 mi WSW 9.2 mph - N/A   Clear
11:35 AM 77.4 °F - 62.1 °F 59% 30.07 in 10.0 mi West 11.5 mph - N/A   Clear
11:55 AM 78.8 °F - 62.6 °F 57% 30.07 in 10.0 mi WSW 10.4 mph - N/A   Clear
12:15 PM 80.2 °F 81.5 °F 63.0 °F 55% 30.06 in 10.0 mi WSW 9.2 mph 12.7 mph N/A   Clear
12:35 PM 81.9 °F 82.9 °F 62.4 °F 52% 30.04 in 10.0 mi West 10.4 mph 17.3 mph N/A   Clear
12:55 PM 82.6 °F 83.2 °F 61.5 °F 49% 30.03 in 10.0 mi WSW 10.4 mph 19.6 mph N/A   Clear
1:15 PM 83.3 °F 83.7 °F 61.2 °F 47% 30.03 in 10.0 mi West 13.8 mph 17.3 mph N/A   Clear
1:35 PM 83.8 °F 84.1 °F 60.8 °F 46% 30.02 in 10.0 mi West 12.7 mph 17.3 mph N/A   Scattered Clouds
1:55 PM 84.2 °F 84.4 °F 60.4 °F 45% 30.01 in 7.0 mi West 13.8 mph - N/A   Scattered Clouds
2:15 PM 84.2 °F 84.2 °F 60.1 °F 44% 30.01 in 7.0 mi WNW 9.2 mph 16.1 mph N/A   Scattered Clouds
2:35 PM 84.7 °F 84.4 °F 59.5 °F 42% 30.00 in 10.0 mi WSW 9.2 mph - N/A   Scattered Clouds
2:55 PM 84.2 °F 84.0 °F 59.2 °F 43% 30.00 in 10.0 mi West 8.1 mph - N/A   Scattered Clouds
3:15 PM 85.5 °F 84.8 °F 58.8 °F 40% 29.99 in 7.0 mi WSW 8.1 mph - N/A   Scattered Clouds
3:35 PM 85.5 °F 84.6 °F 57.9 °F 39% 29.98 in 7.0 mi West 9.2 mph - N/A   Mostly Cloudy
3:55 PM 86.4 °F 85.2 °F 57.6 °F 37% 29.98 in 7.0 mi West 8.1 mph - N/A   Scattered Clouds
4:15 PM 84.7 °F 83.9 °F 57.6 °F 39% 29.98 in 5.0 mi SW 9.2 mph - N/A   Haze
4:35 PM 83.5 °F 83.1 °F 58.1 °F 42% 29.97 in 7.0 mi WSW 5.8 mph - N/A   Scattered Clouds
4:55 PM 84.6 °F 84.0 °F 58.6 °F 41% 29.97 in 10.0 mi WSW 9.2 mph - N/A   Clear
5:15 PM 84.0 °F 83.8 °F 59.0 °F 43% 29.97 in 10.0 mi WSW 8.1 mph - N/A   Clear
5:35 PM 84.7 °F 84.2 °F 58.8 °F 41% 29.97 in 10.0 mi WNW 8.1 mph - N/A   Clear
5:55 PM 83.1 °F 83.0 °F 59.2 °F 44% 29.97 in 7.0 mi West 5.8 mph - N/A   Scattered Clouds
6:15 PM 81.9 °F 82.2 °F 59.9 °F 47% 29.97 in 10.0 mi West 4.6 mph - N/A   Mostly Cloudy
6:35 PM 81.0 °F 81.8 °F 61.5 °F 51% 29.97 in 10.0 mi West 3.5 mph - N/A   Mostly Cloudy
6:55 PM 79.5 °F - 62.8 °F 56% 29.97 in 7.0 mi West 3.5 mph - N/A   Clear
7:15 PM 78.1 °F - 63.9 °F 61% 29.97 in 10.0 mi West 3.5 mph - N/A   Scattered Clouds
7:35 PM 76.3 °F - 64.4 °F 67% 29.96 in 10.0 mi WSW 4.6 mph - N/A   Clear
7:55 PM 75.2 °F - 64.2 °F 69% 29.96 in 10.0 mi SW 4.6 mph - N/A   Clear
8:15 PM 74.1 °F - 64.4 °F 72% 29.96 in 10.0 mi SW 3.5 mph - N/A   Clear
8:35 PM 73.2 °F - 64.2 °F 73% 29.96 in 10.0 mi Calm Calm - N/A   Scattered Clouds
8:55 PM 73.4 °F - 63.7 °F 71% 29.97 in 10.0 mi SSW 3.5 mph - N/A   Mostly Cloudy
9:15 PM 73.0 °F - 63.7 °F 72% 29.97 in 10.0 mi SW 4.6 mph - N/A   Overcast
9:35 PM 72.3 °F - 64.0 °F 75% 29.98 in 7.0 mi WSW 3.5 mph - N/A Rain Light Rain
9:55 PM 71.2 °F - 64.8 °F 80% 29.97 in 10.0 mi SW 5.8 mph - N/A   Overcast
10:15 PM 70.9 °F - 64.8 °F 81% 29.97 in 10.0 mi SW 5.8 mph - N/A   Overcast
10:35 PM 70.2 °F - 64.0 °F 81% 29.98 in 10.0 mi SW 4.6 mph - N/A   Mostly Cloudy
10:55 PM 69.3 °F - 63.7 °F 82% 29.98 in 7.0 mi SW 4.6 mph - N/A   Mostly Cloudy
11:15 PM 69.4 °F - 63.7 °F 82% 29.98 in 10.0 mi WSW 4.6 mph - N/A   Mostly Cloudy
11:35 PM 69.8 °F - 63.5 °F 80% 29.98 in 10.0 mi WSW 3.5 mph - N/A   Mostly Cloudy
11:55 PM 69.1 °F - 63.5 °F 82% 29.97 in 10.0 mi SW 5.8 mph - N/A   Mostly Cloudy